Aérodrome :
LOGIN :

S'inscrire | Disclaimer

   EN    FR    IT 

 










Légende :    VFR   VFR Marginal   IFR   IFR Intensif   IFR Très Intensif
Visi : 
Plafond : 
>= 8 km
>= 3000ft
5 à 8 km
1000 à 3000 ft
1500m à 5 km
500 à 1000 ft
800 à 1500m
200 à 500 ft
< 800m
< 200 ft
Symboles :   Orages  Brouillard  Fortes neiges  Fortes précipitations  Vent > 20 kt
SIGMETs :   Divers  Orages  Givrage  Turbulence  Onde Orograph.  Cendres Volcan.






- Altitude de l'aérodrome : 1460 ft


LSMA - Alpnach

DERNIER METAR :
  • 231650Z AUTO 25002KT 9999NDV SCT052 BKN060 21/17 Q1016 RMK

METARs EXPIRÉS :
  • 231620Z AUTO 07004KT 010V110 9999NDV FEW110 22/15 Q1015 RMK
  • 231550Z AUTO 06006KT 020V090 9999NDV FEW140 23/15 Q1016 RMK
  • 231520Z AUTO 07007KT 040V110 9999NDV NCD 23/15 Q1016 RMK
  • 231450Z 07008KT 9999 FEW050 23/15 Q1016 RMK BLU+
  • 231420Z 07006KT 9999 FEW050 23/15 Q1016 RMK BLU+

Prévision TAF périmée.



MET'MAP, la Météo Aéronautique d'un coup d'oeil ! - Copyright ORBIFLY Décembre 2007 - Disclaimer

ORBIFLY MET'MAP TEAM :

Programmation & Développement : Alexandra Zaïnal
Sur une idée originale de : Baudouin d'Aumeries
Assistance à la programmation : Marc-Olivier Méhu
Soutien technique & logistique : Manuel Goepfert

Contact : metmap@orbifly.com




SOURCES & CREDITS :

   NOAA